Time,TemperatureF,DewpointF,PressureIn,WindDirection,WindDirectionDegrees,WindSpeedMPH,WindSpeedGustMPH,Humidity,HourlyPrecipIn,Conditions,Clouds,dailyrainin,SoftwareType,DateUTC
2013-11-09 00:09:00,70.2,66.0,30.04,ENE,77,3.0,11.0,86,0.00,,,0.00,weatherlink.com 1.10,2013-11-09 05:09:00,
2013-11-09 00:25:00,69.9,66.0,30.03,ENE,70,4.0,12.0,86,0.00,,,0.00,weatherlink.com 1.10,2013-11-09 05:25:00,
2013-11-09 00:40:00,69.7,65.0,30.03,East,96,3.0,11.0,86,0.00,,,0.00,weatherlink.com 1.10,2013-11-09 05:40:00,
2013-11-09 00:55:00,69.4,65.0,30.03,NE,47,4.0,12.0,87,0.00,,,0.00,weatherlink.com 1.10,2013-11-09 05:55:00,
2013-11-09 01:10:00,69.2,65.0,30.03,ENE,60,5.0,9.0,87,0.00,,,0.00,weatherlink.com 1.10,2013-11-09 06:10:00,
2013-11-09 01:25:00,69.1,65.0,30.03,ENE,63,4.0,10.0,87,0.00,,,0.00,weatherlink.com 1.10,2013-11-09 06:25:00,
2013-11-09 01:40:00,69.1,65.0,30.03,East,87,6.0,10.0,87,0.00,,,0.00,weatherlink.com 1.10,2013-11-09 06:40:00,
2013-11-09 01:55:00,69.0,65.0,30.02,ENE,67,3.0,8.0,88,0.00,,,0.00,weatherlink.com 1.10,2013-11-09 06:55:00,
2013-11-09 02:10:00,68.9,65.0,30.02,ENE,59,4.0,8.0,88,0.00,,,0.00,weatherlink.com 1.10,2013-11-09 07:10:00,
2013-11-09 02:25:00,68.7,65.0,30.02,East,79,5.0,9.0,88,0.00,,,0.00,weatherlink.com 1.10,2013-11-09 07:25:00,
2013-11-09 02:40:00,68.5,65.0,30.02,NE,51,3.0,8.0,88,0.00,,,0.00,weatherlink.com 1.10,2013-11-09 07:40:00,
2013-11-09 02:55:00,68.4,65.0,30.02,North,11,4.0,7.0,89,0.00,,,0.00,weatherlink.com 1.10,2013-11-09 07:55:00,
2013-11-09 03:10:00,68.3,65.0,30.02,NE,53,3.0,7.0,89,0.00,,,0.00,weatherlink.com 1.10,2013-11-09 08:10:00,
2013-11-09 03:25:00,68.4,65.0,30.02,NE,39,3.0,7.0,89,0.00,,,0.00,weatherlink.com 1.10,2013-11-09 08:25:00,
2013-11-09 03:40:00,68.4,65.0,30.02,ENE,68,3.0,5.0,89,0.00,,,0.00,weatherlink.com 1.10,2013-11-09 08:40:00,
2013-11-09 03:55:00,68.2,65.0,30.02,ENE,63,2.0,7.0,89,0.00,,,0.00,weatherlink.com 1.10,2013-11-09 08:55:00,
2013-11-09 04:10:00,68.2,65.0,30.02,ENE,61,3.0,9.0,89,0.00,,,0.00,weatherlink.com 1.10,2013-11-09 09:10:00,
2013-11-09 04:25:00,68.1,65.0,30.02,ENE,66,4.0,7.0,89,0.00,,,0.00,weatherlink.com 1.10,2013-11-09 09:25:00,
2013-11-09 04:40:00,68.0,65.0,30.02,NE,42,6.0,8.0,89,0.00,,,0.00,weatherlink.com 1.10,2013-11-09 09:40:00,
2013-11-09 04:55:00,68.0,65.0,30.03,ENE,59,3.0,8.0,89,0.00,,,0.00,weatherlink.com 1.10,2013-11-09 09:55:00,
2013-11-09 05:10:00,68.2,65.0,30.03,NE,50,2.0,9.0,90,0.00,,,0.00,weatherlink.com 1.10,2013-11-09 10:10:00,
2013-11-09 05:25:00,68.3,65.0,30.03,ENE,75,7.0,10.0,90,0.00,,,0.00,weatherlink.com 1.10,2013-11-09 10:25:00,
2013-11-09 05:40:00,68.6,65.0,30.03,ENE,78,4.0,10.0,89,0.00,,,0.00,weatherlink.com 1.10,2013-11-09 10:40:00,
2013-11-09 05:55:00,68.9,66.0,30.04,ENE,69,3.0,11.0,89,0.00,,,0.00,weatherlink.com 1.10,2013-11-09 10:55:00,
2013-11-09 06:10:00,69.0,66.0,30.04,NE,56,7.0,8.0,89,0.00,,,0.00,weatherlink.com 1.10,2013-11-09 11:10:00,
2013-11-09 06:25:00,69.4,66.0,30.04,ENE,64,3.0,11.0,89,0.00,,,0.00,weatherlink.com 1.10,2013-11-09 11:25:00,
2013-11-09 06:40:00,69.5,66.0,30.05,ENE,59,3.0,11.0,89,0.00,,,0.00,weatherlink.com 1.10,2013-11-09 11:40:00,
2013-11-09 06:55:00,69.5,66.0,30.05,North,360,5.0,9.0,89,0.00,,,0.00,weatherlink.com 1.10,2013-11-09 11:55:00,
2013-11-09 07:10:00,69.5,66.0,30.06,NE,51,6.0,8.0,89,0.00,,,0.00,weatherlink.com 1.10,2013-11-09 12:10:00,
2013-11-09 07:25:00,69.6,66.0,30.07,ENE,59,5.0,9.0,89,0.00,,,0.00,weatherlink.com 1.10,2013-11-09 12:25:00,
2013-11-09 07:40:00,70.0,67.0,30.07,NNE,22,6.0,9.0,89,0.00,,,0.00,weatherlink.com 1.10,2013-11-09 12:40:00,
2013-11-09 07:55:00,70.3,67.0,30.07,East,82,7.0,8.0,89,0.00,,,0.00,weatherlink.com 1.10,2013-11-09 12:55:00,
2013-11-09 08:10:00,71.1,68.0,30.08,East,79,5.0,10.0,89,0.00,,,0.00,weatherlink.com 1.10,2013-11-09 13:10:00,
2013-11-09 08:25:00,71.9,68.0,30.08,East,86,5.0,9.0,88,0.00,,,0.00,weatherlink.com 1.10,2013-11-09 13:25:00,
2013-11-09 08:40:00,72.1,68.0,30.08,ESE,107,2.0,11.0,88,0.00,,,0.00,weatherlink.com 1.10,2013-11-09 13:40:00,
2013-11-09 08:55:00,72.5,69.0,30.09,ENE,76,5.0,8.0,88,0.00,,,0.00,weatherlink.com 1.10,2013-11-09 13:55:00,
2013-11-09 09:10:00,73.1,69.0,30.09,NE,44,2.0,7.0,87,0.00,,,0.00,weatherlink.com 1.10,2013-11-09 14:10:00,
2013-11-09 09:25:00,74.3,70.0,30.09,East,94,5.0,9.0,86,0.00,,,0.00,weatherlink.com 1.10,2013-11-09 14:25:00,
2013-11-09 09:40:00,76.1,71.0,30.09,ESE,107,10.0,10.0,83,0.00,,,0.00,weatherlink.com 1.10,2013-11-09 14:40:00,
2013-11-09 09:55:00,76.3,71.0,30.09,East,82,5.0,10.0,83,0.00,,,0.00,weatherlink.com 1.10,2013-11-09 14:55:00,
2013-11-09 10:10:00,76.6,71.0,30.09,East,89,0.0,9.0,83,0.00,,,0.00,weatherlink.com 1.10,2013-11-09 15:10:00,
2013-11-09 10:26:00,77.3,71.0,30.09,East,86,5.0,11.0,82,0.00,,,0.00,weatherlink.com 1.10,2013-11-09 15:26:00,
2013-11-09 10:41:00,77.5,71.0,30.09,East,95,5.0,12.0,81,0.00,,,0.00,weatherlink.com 1.10,2013-11-09 15:41:00,
2013-11-09 10:56:00,77.8,71.0,30.09,ESE,107,2.0,11.0,80,0.00,,,0.00,weatherlink.com 1.10,2013-11-09 15:56:00,
2013-11-09 11:11:00,77.8,71.0,30.08,East,94,2.0,12.0,80,0.00,,,0.00,weatherlink.com 1.10,2013-11-09 16:11:00,
2013-11-09 11:26:00,77.5,71.0,30.08,NNE,32,11.0,13.0,80,0.00,,,0.00,weatherlink.com 1.10,2013-11-09 16:26:00,
2013-11-09 11:41:00,77.3,71.0,30.08,East,84,6.0,10.0,80,0.00,,,0.00,weatherlink.com 1.10,2013-11-09 16:41:00,
2013-11-09 11:56:00,77.5,71.0,30.07,SE,138,2.0,9.0,81,0.00,,,0.00,weatherlink.com 1.10,2013-11-09 16:56:00,
2013-11-09 12:11:00,76.7,72.0,30.07,ENE,57,8.0,11.0,84,0.00,,,0.00,weatherlink.com 1.10,2013-11-09 17:11:00,
2013-11-09 12:26:00,77.9,71.0,30.06,East,86,3.0,15.0,80,0.00,,,0.00,weatherlink.com 1.10,2013-11-09 17:26:00,
2013-11-09 12:41:00,78.6,71.0,30.05,ESE,119,4.0,14.0,77,0.00,,,0.00,weatherlink.com 1.10,2013-11-09 17:41:00,
2013-11-09 12:56:00,78.2,71.0,30.05,ESE,115,7.0,16.0,78,0.00,,,0.00,weatherlink.com 1.10,2013-11-09 17:56:00,
2013-11-09 13:11:00,78.6,71.0,30.04,ESE,123,2.0,7.0,77,0.00,,,0.00,weatherlink.com 1.10,2013-11-09 18:11:00,
2013-11-09 13:26:00,77.3,71.0,30.05,ESE,108,1.0,10.0,81,0.00,,,0.00,weatherlink.com 1.10,2013-11-09 18:26:00,
2013-11-09 13:41:00,78.6,72.0,30.04,ENE,76,2.0,7.0,80,0.00,,,0.00,weatherlink.com 1.10,2013-11-09 18:41:00,
2013-11-09 13:56:00,80.0,72.0,30.04,ESE,116,3.0,6.0,76,0.00,,,0.00,weatherlink.com 1.10,2013-11-09 18:56:00,
2013-11-09 14:11:00,79.7,71.0,30.03,East,90,7.0,11.0,75,0.00,,,0.00,weatherlink.com 1.10,2013-11-09 19:11:00,
2013-11-09 14:26:00,79.6,71.0,30.04,ENE,71,7.0,11.0,75,0.00,,,0.00,weatherlink.com 1.10,2013-11-09 19:26:00,
2013-11-09 14:41:00,79.1,71.0,30.04,East,89,5.0,11.0,75,0.00,,,0.00,weatherlink.com 1.10,2013-11-09 19:41:00,
2013-11-09 14:56:00,78.4,71.0,30.04,SE,138,5.0,11.0,77,0.00,,,0.00,weatherlink.com 1.10,2013-11-09 19:56:00,
2013-11-09 15:11:00,78.3,71.0,30.04,East,83,7.0,12.0,77,0.00,,,0.00,weatherlink.com 1.10,2013-11-09 20:11:00,
2013-11-09 15:26:00,77.8,70.0,30.04,East,84,6.0,14.0,78,0.00,,,0.00,weatherlink.com 1.10,2013-11-09 20:26:00,
2013-11-09 15:41:00,77.1,70.0,30.04,ENE,69,7.0,11.0,79,0.00,,,0.00,weatherlink.com 1.10,2013-11-09 20:41:00,
2013-11-09 15:56:00,77.5,70.0,30.04,East,88,7.0,13.0,78,0.00,,,0.00,weatherlink.com 1.10,2013-11-09 20:56:00,
2013-11-09 16:11:00,76.9,70.0,30.04,ESE,109,1.0,9.0,80,0.00,,,0.00,weatherlink.com 1.10,2013-11-09 21:11:00,
2013-11-09 16:26:00,76.0,71.0,30.04,SE,138,5.0,14.0,83,0.00,,,0.00,weatherlink.com 1.10,2013-11-09 21:26:00,
2013-11-09 16:41:00,75.5,70.0,30.05,East,89,3.0,7.0,84,0.00,,,0.00,weatherlink.com 1.10,2013-11-09 21:41:00,
2013-11-09 16:56:00,75.6,71.0,30.05,East,82,6.0,10.0,84,0.00,,,0.00,weatherlink.com 1.10,2013-11-09 21:56:00,
2013-11-09 17:11:00,75.3,70.0,30.05,NE,55,6.0,6.0,84,0.00,,,0.00,weatherlink.com 1.10,2013-11-09 22:11:00,
2013-11-09 17:26:00,75.2,69.0,30.06,ENE,69,1.0,15.0,82,0.00,,,0.00,weatherlink.com 1.10,2013-11-09 22:26:00,
2013-11-09 17:41:00,75.2,69.0,30.06,East,90,0.0,9.0,82,0.00,,,0.00,weatherlink.com 1.10,2013-11-09 22:41:00,
2013-11-09 17:56:00,75.0,70.0,30.07,East,100,2.0,10.0,83,0.00,,,0.00,weatherlink.com 1.10,2013-11-09 22:56:00,
2013-11-09 18:11:00,75.0,70.0,30.06,East,92,6.0,12.0,83,0.00,,,0.00,weatherlink.com 1.10,2013-11-09 23:11:00,
2013-11-09 18:26:00,74.9,69.0,30.07,ENE,69,4.0,13.0,83,0.00,,,0.00,weatherlink.com 1.10,2013-11-09 23:26:00,
2013-11-09 18:41:00,75.1,70.0,30.07,ESE,106,2.0,14.0,83,0.00,,,0.00,weatherlink.com 1.10,2013-11-09 23:41:00,
2013-11-09 18:56:00,74.7,70.0,30.07,East,86,5.0,9.0,84,0.00,,,0.00,weatherlink.com 1.10,2013-11-09 23:56:00,
2013-11-09 19:11:00,74.5,70.0,30.08,East,82,6.0,12.0,85,0.00,,,0.00,weatherlink.com 1.10,2013-11-10 00:11:00,
2013-11-09 19:26:00,74.2,70.0,30.08,East,88,3.0,13.0,86,0.00,,,0.00,weatherlink.com 1.10,2013-11-10 00:26:00,
2013-11-09 19:41:00,73.9,70.0,30.08,East,100,3.0,10.0,87,0.00,,,0.00,weatherlink.com 1.10,2013-11-10 00:41:00,
2013-11-09 19:56:00,73.6,70.0,30.08,ENE,75,5.0,9.0,88,0.00,,,0.00,weatherlink.com 1.10,2013-11-10 00:56:00,
2013-11-09 20:11:00,73.3,70.0,30.09,East,94,3.0,10.0,89,0.00,,,0.00,weatherlink.com 1.10,2013-11-10 01:11:00,
2013-11-09 20:26:00,73.4,70.0,30.09,ENE,69,3.0,10.0,88,0.00,,,0.00,weatherlink.com 1.10,2013-11-10 01:26:00,
2013-11-09 20:41:00,73.3,70.0,30.09,ENE,64,5.0,9.0,88,0.00,,,0.00,weatherlink.com 1.10,2013-11-10 01:41:00,
2013-11-09 20:56:00,73.3,70.0,30.09,East,82,5.0,7.0,88,0.00,,,0.00,weatherlink.com 1.10,2013-11-10 01:56:00,
2013-11-09 21:11:00,73.3,70.0,30.09,East,81,5.0,7.0,88,0.00,,,0.00,weatherlink.com 1.10,2013-11-10 02:11:00,
2013-11-09 21:26:00,73.1,69.0,30.09,East,96,2.0,8.0,88,0.00,,,0.00,weatherlink.com 1.10,2013-11-10 02:26:00,
2013-11-09 21:41:00,72.9,69.0,30.09,ENE,78,5.0,8.0,88,0.00,,,0.00,weatherlink.com 1.10,2013-11-10 02:41:00,
2013-11-09 21:56:00,72.8,70.0,30.09,ENE,73,2.0,8.0,89,0.00,,,0.00,weatherlink.com 1.10,2013-11-10 02:56:00,
2013-11-09 22:11:00,72.5,69.0,30.09,ENE,63,5.0,8.0,89,0.00,,,0.00,weatherlink.com 1.10,2013-11-10 03:11:00,
2013-11-09 22:26:00,72.3,69.0,30.09,ENE,71,0.0,8.0,89,0.00,,,0.00,weatherlink.com 1.10,2013-11-10 03:26:00,
2013-11-09 22:41:00,72.0,69.0,30.09,NE,49,1.0,5.0,90,0.00,,,0.00,weatherlink.com 1.10,2013-11-10 03:41:00,
2013-11-09 22:56:00,71.8,69.0,30.10,East,81,2.0,5.0,90,0.00,,,0.00,weatherlink.com 1.10,2013-11-10 03:56:00,
2013-11-09 23:11:00,71.5,69.0,30.09,ENE,74,5.0,5.0,90,0.00,,,0.00,weatherlink.com 1.10,2013-11-10 04:11:00,
2013-11-09 23:26:00,71.2,69.0,30.09,ENE,66,2.0,5.0,91,0.00,,,0.00,weatherlink.com 1.10,2013-11-10 04:26:00,
2013-11-09 23:41:00,70.9,68.0,30.08,ENE,59,3.0,5.0,91,0.00,,,0.00,weatherlink.com 1.10,2013-11-10 04:41:00,
2013-11-09 23:56:00,70.6,68.0,30.08,ENE,65,2.0,5.0,92,0.00,,,0.00,weatherlink.com 1.10,2013-11-10 04:56:00,